Date String (YYYY-MM-DD hh:mm:ss) UTC,Instrument flags,absolute air pressure of the measurement (hPa),sample flow rate (lpm),inlet stack bypass flow (lpm),air temperature of the measurement (°C),ambient temperature measured by the external sensor (°C),aerosol sample conditioner tube jacket temperature (°C),OPC LED temperature (°C),internal box temperature (°C),relative humidity of the measurement (%),span deviation,mass concentration of particles derived from Lorenz-Mie calculation of OPC scattering (μg/m³),mass concentration of particles derived from Lorenz-Mie calculation of OPC scattering (μg/m³),mass concentration of particles derived from Lorenz-Mie calculation of OPC scattering (μg/m³)
DateTimeUTC,F1_M11,P_M11,Q1_M11,Q2_M11,T1_M11,T2_M11,T3_M11,T4_M11,T5_M11,U1_M11,ZSPAN_M11,X0_M11,X2_M11,X1_M11
2023-10-06 20:00:00,SystemResetWarning,0841.4,5.00,000.00,028.0,026.5,000.0,036.4,029.6,18.1,0000.0,0012.49,0004.70,0003.83
2023-10-06 20:01:00,SystemResetWarning,0841.4,5.00,000.00,028.0,026.5,000.0,036.4,029.6,18.1,0000.0,0012.38,0004.61,0003.81
2023-10-06 20:02:00,SystemResetWarning,0841.4,5.00,000.00,028.0,026.5,000.0,036.4,029.6,18.2,0000.0,0012.35,0004.61,0003.80
2023-10-06 20:03:00,SystemResetWarning,0841.4,5.00,000.00,028.0,026.5,000.0,036.4,029.6,18.2,0000.0,0012.83,0004.63,0003.81
2023-10-06 20:04:00,SystemResetWarning,0841.4,5.00,000.00,028.0,026.5,000.0,036.4,029.6,18.2,0000.0,0013.05,0004.61,0003.81
2023-10-06 20:05:00,SystemResetWarning,0841.3,5.00,000.00,028.0,026.5,000.0,036.4,029.6,18.1,0000.0,0012.06,0004.64,0003.82
2023-10-06 20:06:00,SystemResetWarning,0841.3,5.00,000.00,028.0,026.6,000.0,036.4,029.6,18.1,0000.0,0012.10,0004.61,0003.82
2023-10-06 20:07:00,SystemResetWarning,0841.3,5.01,000.00,028.0,026.6,000.0,036.4,029.7,18.2,0000.0,0012.30,0004.59,0003.82
2023-10-06 20:08:00,SystemResetWarning,0841.3,5.01,000.00,028.0,026.6,000.0,036.4,029.7,18.2,0000.0,0012.15,0004.59,0003.84
2023-10-06 20:09:00,SystemResetWarning,0841.2,5.01,000.00,028.0,026.6,000.0,036.4,029.7,18.3,0000.0,0012.41,0004.59,0003.85
2023-10-06 20:10:00,SystemResetWarning,0841.2,5.00,000.00,028.0,026.6,000.0,036.4,029.6,18.4,0000.0,0012.53,0004.59,0003.85
2023-10-06 20:11:00,SystemResetWarning,0841.2,4.99,000.00,028.0,026.6,000.0,036.4,029.6,18.4,0000.0,0013.04,0004.59,0003.85
2023-10-06 20:12:00,SystemResetWarning,0841.3,5.00,000.00,028.0,026.6,000.0,036.4,029.6,18.4,0000.0,0012.26,0004.59,0003.88
2023-10-06 20:13:00,SystemResetWarning,0841.2,5.00,000.00,028.0,026.6,000.0,036.4,029.6,18.3,0000.0,0012.19,0004.62,0003.89
2023-10-06 20:14:00,SystemResetWarning,0841.3,5.00,000.00,028.0,026.6,000.0,036.4,029.6,18.2,0000.0,0011.73,0004.61,0003.90
2023-10-06 20:15:00,SystemResetWarning,0841.2,5.00,000.00,028.0,026.6,000.0,036.4,029.6,18.3,0000.0,0011.46,0004.62,0003.90
2023-10-06 20:16:00,SystemResetWarning,0841.2,5.00,000.00,028.0,026.6,000.0,036.4,029.6,18.4,0000.0,0011.31,0004.60,0003.90
2023-10-06 20:17:00,SystemResetWarning,0841.2,5.00,000.00,028.0,026.6,000.0,036.4,029.6,18.4,0000.0,0011.07,0004.66,0003.91
2023-10-06 20:18:00,SystemResetWarning,0841.2,5.01,000.00,028.0,026.6,000.0,036.4,029.6,18.3,0000.0,0010.65,0004.71,0003.91
2023-10-06 20:19:00,SystemResetWarning,0841.2,5.00,000.00,028.0,026.5,000.0,036.4,029.6,18.3,0000.0,0010.70,0004.69,0003.88
2023-10-06 20:20:00,SystemResetWarning,0841.2,5.01,000.00,028.0,026.5,000.0,036.4,029.6,18.2,0000.0,0010.23,0004.69,0003.86
2023-10-06 20:21:00,SystemResetWarning,0841.2,5.00,000.00,028.0,026.5,000.0,036.4,029.6,18.2,0000.0,0010.16,0004.69,0003.83
2023-10-06 20:22:00,SystemResetWarning,0841.2,5.00,000.00,028.0,026.5,000.0,036.4,029.6,18.3,0000.0,0009.51,0004.67,0003.81
2023-10-06 20:23:00,SystemResetWarning,0841.2,5.00,000.00,028.0,026.5,000.0,036.4,029.6,18.2,0000.0,0010.04,0004.68,0003.79
2023-10-06 20:24:00,SystemResetWarning,0841.2,5.00,000.00,028.0,026.5,000.0,036.4,029.6,18.2,0000.0,0010.29,0004.68,0003.77
2023-10-06 20:25:00,SystemResetWarning,0841.1,5.00,000.00,028.0,026.5,000.0,036.4,029.5,18.3,0000.0,0010.68,0004.69,0003.74
2023-10-06 20:26:00,SystemResetWarning,0841.1,5.00,000.00,028.0,026.5,000.0,036.4,029.6,18.3,0000.0,0010.99,0004.72,0003.73
2023-10-06 20:27:00,SystemResetWarning,0841.0,5.00,000.00,028.0,026.5,000.0,036.4,029.6,18.4,0000.0,0010.83,0004.70,0003.71
2023-10-06 20:28:00,SystemResetWarning,0841.1,5.00,000.00,028.0,026.5,000.0,036.4,029.6,18.4,0000.0,0010.46,0004.67,0003.70
2023-10-06 20:29:00,SystemResetWarning,0841.1,5.00,000.00,028.0,026.5,000.0,036.4,029.6,18.2,0000.0,0010.39,0004.60,0003.69
2023-10-06 20:30:00,SystemResetWarning,0841.1,5.00,000.00,027.9,026.5,000.0,036.4,029.5,18.2,0000.0,0010.55,0004.62,0003.69
2023-10-06 20:31:00,SystemResetWarning,0841.0,5.01,000.00,027.9,026.5,000.0,036.4,029.5,18.3,0000.0,0011.81,0004.66,0003.70
2023-10-06 20:32:00,SystemResetWarning,0841.1,5.00,000.00,027.9,026.5,000.0,036.4,029.5,18.6,0000.0,0013.07,0004.71,0003.74
2023-10-06 20:33:00,SystemResetWarning,0841.1,4.99,000.00,027.9,026.5,000.0,036.4,029.5,18.5,0000.0,0013.23,0004.71,0003.76
2023-10-06 20:34:00,SystemResetWarning,0841.1,4.99,000.00,027.9,026.5,000.0,036.4,029.5,18.4,0000.0,0012.89,0004.73,0003.78
2023-10-06 20:35:00,SystemResetWarning,0841.1,5.00,000.00,027.9,026.5,000.0,036.4,029.5,18.6,0000.0,0012.70,0004.75,0003.82
2023-10-06 20:36:00,SystemResetWarning,0841.1,5.01,000.00,027.9,026.5,000.0,036.4,029.5,18.6,0000.0,0014.19,0004.76,0003.86
2023-10-06 20:37:00,SystemResetWarning,0841.1,5.01,000.00,027.9,026.4,000.0,036.4,029.4,18.5,0000.0,0014.55,0004.74,0003.89
2023-10-06 20:38:00,SystemResetWarning,0841.1,5.00,000.00,027.9,026.4,000.0,036.4,029.4,18.5,0000.0,0015.06,0004.74,0003.92
2023-10-06 20:39:00,SystemResetWarning,0841.1,5.00,000.00,027.8,026.3,000.0,036.4,029.4,18.4,0000.0,0015.52,0004.78,0003.96
2023-10-06 20:40:00,SystemResetWarning,0841.1,4.99,000.00,027.8,026.3,000.0,036.3,029.4,18.6,0000.0,0015.40,0004.83,0003.99
2023-10-06 20:41:00,SystemResetWarning,0841.1,5.00,000.00,027.8,026.3,000.0,036.3,029.4,18.6,0000.0,0015.39,0004.88,0004.04
2023-10-06 20:42:00,SystemResetWarning,0841.1,5.00,000.00,027.8,026.3,000.0,036.3,029.4,18.6,0000.0,0014.78,0004.91,0004.08
2023-10-06 20:43:00,SystemResetWarning,0841.1,4.99,000.00,027.8,026.3,000.0,036.3,029.4,18.5,0000.0,0013.66,0004.89,0004.09
2023-10-06 20:44:00,SystemResetWarning,0841.0,4.99,000.00,027.8,026.3,000.0,036.3,029.4,18.6,0000.0,0014.15,0004.89,0004.11
2023-10-06 20:45:00,SystemResetWarning,0841.0,4.99,000.00,027.8,026.4,000.0,036.3,029.4,18.7,0000.0,0014.28,0004.87,0004.12
2023-10-06 20:46:00,SystemResetWarning,0841.1,5.00,000.00,027.8,026.4,000.0,036.3,029.4,18.6,0000.0,0015.00,0004.86,0004.11
2023-10-06 20:47:00,SystemResetWarning,0841.1,5.01,000.00,027.8,026.4,000.0,036.3,029.4,18.6,0000.0,0013.76,0004.86,0004.11
2023-10-06 20:48:00,SystemResetWarning,0841.0,5.01,000.00,027.8,026.4,000.0,036.3,029.4,18.6,0000.0,0012.72,0004.84,0004.10
2023-10-06 20:49:00,SystemResetWarning,0841.0,5.01,000.00,027.8,026.3,000.0,036.3,029.4,18.6,0000.0,0012.66,0004.83,0004.10
2023-10-06 20:50:00,SystemResetWarning,0841.0,4.99,000.00,027.8,026.3,000.0,036.3,029.4,18.7,0000.0,0012.38,0004.85,0004.11
2023-10-06 20:51:00,SystemResetWarning,0841.0,4.99,000.00,027.8,026.3,000.0,036.3,029.4,18.6,0000.0,0012.35,0004.86,0004.13
2023-10-06 20:52:00,SystemResetWarning,0840.9,4.99,000.00,027.8,026.3,000.0,036.3,029.4,18.7,0000.0,0012.25,0004.85,0004.13
2023-10-06 20:53:00,SystemResetWarning,0841.0,5.00,000.00,027.7,026.2,000.0,036.3,029.3,18.7,0000.0,0011.66,0004.82,0004.12
2023-10-06 20:54:00,SystemResetWarning,0840.9,5.01,000.00,027.7,026.2,000.0,036.3,029.3,18.8,0000.0,0011.97,0004.82,0004.13
2023-10-06 20:55:00,SystemResetWarning,0840.9,5.00,000.00,027.7,026.1,000.0,036.2,029.3,18.9,0000.0,0011.41,0004.88,0004.15
2023-10-06 20:56:00,SystemResetWarning,0840.9,5.01,000.00,027.7,026.2,000.0,036.2,029.2,19.1,0000.0,0011.29,0004.88,0004.16
2023-10-06 20:57:00,SystemResetWarning,0840.9,5.01,000.00,027.7,026.2,000.0,036.2,029.2,18.9,0000.0,0010.36,0004.87,0004.19
2023-10-06 20:58:00,SystemResetWarning,0840.9,5.00,000.00,027.7,026.2,000.0,036.2,029.2,18.9,0000.0,0009.85,0004.83,0004.20
2023-10-06 20:59:00,SystemResetWarning,0840.9,4.99,000.00,027.7,026.2,000.0,036.2,029.2,19.0,0000.0,0009.80,0004.84,0004.22
